Welcome to the New NWS' Forecast!
Most changes are behind the scenes, but click here for differences you might notice.
Latest weather observations around

CW2285 Thousand Palms (C2285)

Using English Units (Switch to International System of Units)
Date/ Time (PDT) Wind (mph) Vis. (mi) Weather Sky Cond. Temp (°F) Rel. Humidity Wind Chill (°F) Heat Index (°F) Pressure Precip. (in)
Air Dwpt 6 hour Altimeter (inHg) Sea level (inHg) 1 hr 3 hr 6 hr
Max Min
Notice The following observation data may not be complete
Jul 19 05:55     Clear            %              
Jul 19 05:50 E 2   Clear   85 70     60%   89 29.87        
Jul 19 05:45 E 1   Clear   85 70     60%   89 29.87        
Jul 19 05:40 E 3   Clear   85 70     60%   89 29.87        
Jul 19 05:35 E 2   Clear   85 70     60%   89 29.87        
Jul 19 05:30 E 2   Clear   85 70     60%   89 29.87        
Jul 19 05:25 ENE 2   Clear   85 70     61%   90 29.86        
Jul 19 05:20 ENE 2   Clear   85 70     60%   89 29.86        
Jul 19 05:15 ENE 2   Clear   85 70     61%   90 29.86        
Jul 19 05:10 ENE 2   Clear   86 71     61%   91 29.85        
Jul 19 05:05 ENE 2   Clear   86 70     60%   91 29.85        
Jul 19 05:00 ENE 1   Clear   86 70     60%   91 29.85        
Jul 19 04:55 ENE 2   Clear   86 70     60%   91 29.85        
Jul 19 04:50 E 2   Clear   86 70     60%   91 29.85        
Jul 19 04:45 E 2   Clear   86 70     59%   91 29.85        
Jul 19 04:40 E 3   Clear   86 70     59%   91 29.85        
Jul 19 04:35 E 3   Clear   86 70     59%   91 29.85        
Jul 19 04:30 ENE 3   Clear   86 70     59%   91 29.85        
Jul 19 04:25 ENE 2   Clear   86 69     58%   90 29.85        
Jul 19 04:20 ENE 2   Clear   86 69     58%   90 29.85        
Jul 19 04:15 ENE 3   Clear   86 69     58%   90 29.85        
Jul 19 04:10 E 2   Clear   86 69     58%   90 29.85        
Jul 19 04:05 E 3   Clear   87 70     58%   92 29.85        
Jul 19 04:00 E 2   Clear   87 70     58%   92 29.85        
Jul 19 03:55 E 2   Clear   87 70     58%   92 29.85        
Jul 19 03:50 E 4   Clear   87 70     57%   92 29.85        
Jul 19 03:45 E 3   Clear   87 70     58%   92 29.85        
Jul 19 03:40 E 3   Clear   87 70     58%   92 29.85        
Jul 19 03:35 E 3   Clear   87 70     58%   92 29.85        
Jul 19 03:30 ENE 3   Clear   87 70     58%   92 29.85        
Jul 19 03:25 E 3   Clear   87 70     58%   92 29.85        
Jul 19 03:20 ENE 3   Clear   87 70     57%   92 29.85        
Jul 19 03:15 ENE 3   Clear   87 70     57%   92 29.85        
Jul 19 03:10 E 3   Clear   88 71     57%   94 29.85        
Jul 19 03:05 ESE 5   Clear   88 70     56%   93 29.85        
Jul 19 03:00 E 5   Clear   88 70     56%   93 29.85        
Jul 19 02:55 ESE 5   Clear   88 71     57%   94 29.85        
Jul 19 02:50 ESE 5   Clear   88 71     57%   94 29.85        
Jul 19 02:45 E 4   Clear   87 70     58%   92 29.85        
Jul 19 02:40 E 2   Clear   87 71     59%   93 29.85        
Jul 19 02:35 ENE 2   Clear   87 71     59%   93 29.85        
Jul 19 02:30 E 2   Clear   88 71     58%   94 29.85        
Jul 19 02:25 ESE 2   Clear   88 71     57%   94 29.85        
Jul 19 02:20 ESE 2   Clear   88 71     57%   94 29.85        
Jul 19 02:15 ESE 1   Clear   88 70     56%   93 29.85        
Jul 19 02:10 ESE 2   Clear   89 71     56%   95 29.85        
Jul 19 02:05 SSE 2   Clear   89 72     57%   96 29.85        
Jul 19 02:00 SE 1   Clear   89 72     58%   96 29.85        
Jul 19 01:55 SE 2   Clear   89 72     58%   96 29.85        
Jul 19 01:50 ESE 1   Clear   89 72     58%   96 29.85        
Jul 19 01:45 Calm   Clear   89 73     59%   97 29.85        
Jul 19 01:40 Calm   Clear   89 73     59%   97 29.85        
Jul 19 01:35 ESE 2   Clear   89 73     59%   97 29.85        
Jul 19 01:30 Calm   Clear   89 73     59%   97 29.85        
Jul 19 01:25 SE 2   Clear   90 73     58%   99 29.85        
Jul 19 01:20 SE 1   Clear   90 73     58%   99 29.85        
Jul 19 01:15 SE 2   Clear   90 73     58%   99 29.85        
Jul 19 01:10 SE 2   Clear   90 73     57%   98 29.85        
Jul 19 01:05 ESE 4   Clear   90 73     57%   98 29.85        
Jul 19 01:00 ESE 3   Clear   90 72     56%   97 29.85        
Jul 19 00:55 ESE 5   Clear   90 72     56%   97 29.85        
Jul 19 00:50 ESE 4   Clear   90 72     56%   97 29.85        
Jul 19 00:45 ESE 6   Clear   90 72     56%   97 29.85        
Jul 19 00:40 ESE 6   Clear   91 73     56%   100 29.85        
Jul 19 00:35 E 5   Clear   91 73     55%   99 29.85        
Jul 19 00:30 ESE 6   Clear   91 73     55%   99 29.85        
Jul 19 00:25 E 5   Clear   91 73     55%   99 29.86        
Jul 19 00:20 ESE 6   Clear   91 73     55%   99 29.86        
Jul 19 00:15 E 6   Clear   91 73     55%   99 29.86        
Jul 19 00:10 E 7   Clear   91 72     54%   99 29.86        
Jul 19 00:05 E 4   Clear   91 71     53%   98 29.85        
Jul 19 00:00 ESE 5   Clear   92 72     53%   100 29.85        
Jul 18 23:55 E 5   Clear   92 72     53%   100 29.86        
Jul 18 23:50 E 3   Clear   92 72     53%   100 29.86        
Jul 18 23:45 E 3   Clear   92 72     52%   100 29.86        
Jul 18 23:40 E 2   Clear   92 72     53%   100 29.86        
Jul 18 23:35 E 2   Clear   92 72     53%   100 29.86        
Jul 18 23:30 E 2   Clear   92 72     53%   100 29.86        
Jul 18 23:25 ENE 2   Clear   92 72     53%   100 29.86        
Jul 18 23:20 ENE 3   Clear   92 72     52%   100 29.86        
Jul 18 23:15 E 4   Clear   92 72     52%   100 29.86        
Jul 18 23:10 ESE 2   Clear   92 72     52%   100 29.86        
Jul 18 23:05 ESE 2   Clear   92 72     52%   100 29.86        
Jul 18 23:00 E 2   Clear   92 71     51%   99 29.85        
Jul 18 22:55 E 3   Clear   92 71     51%   99 29.85        
Jul 18 22:50 E 2   Clear   92 71     51%   99 29.86        
Jul 18 22:45 E 1   Clear   92 71     51%   99 29.86        
Jul 18 22:40 ENE 2   Clear   92 71     51%   99 29.86        
Jul 18 22:35 ENE 2   Clear   92 71     51%   99 29.86        
Jul 18 22:30 ENE 2   Clear   92 71     50%   98 29.86        
Jul 18 22:25 E 2   Clear   92 71     50%   98 29.86        
Jul 18 22:20 E 3   Clear   92 71     50%   98 29.86        
Jul 18 22:15 E 2   Clear   92 70     49%   98 29.86        
Jul 18 22:10 E 2   Clear   92 70     49%   98 29.87        
Jul 18 22:05 ENE 3   Clear   92 70     49%   98 29.87        
Jul 18 22:00 E 2   Clear   92 70     49%   98 29.86        
Jul 18 21:55 E 2   Clear   92 70     49%   98 29.86        
Jul 18 21:50 E 2   Clear   93 71     49%   100 29.85        
Jul 18 21:45 E 3   Clear   93 71     49%   100 29.85        
Jul 18 21:40 E 2   Clear   93 70     48%   99 29.85        
Jul 18 21:35 ESE 2   Clear   93 70     47%   99 29.85        
Jul 18 21:30 E 2   Clear   93 70     47%   99 29.85        
Jul 18 21:25 ESE 3   Clear   94 70     46%   100 29.85        
Jul 18 21:20 E 4   Clear   94 70     46%   100 29.85        
Jul 18 21:15 ESE 6   Clear   94 70     46%   100 29.85        
Jul 18 21:10 ESE 4   Clear   94 69     45%   100 29.85        
Jul 18 21:05 ESE 5   Clear   94 69     44%   99 29.84        
Jul 18 21:00 ESE 5   Clear   94 69     44%   99 29.84        
Jul 18 20:55 ESE 5   Clear   94 69     44%   99 29.84        
Jul 18 20:50 SE 5   Clear   94 69     45%   100 29.84        
Jul 18 20:45 ESE 4   Clear   94 69     45%   100 29.84        
Jul 18 20:40 SE 5   Clear   94 69     45%   100 29.84        
Jul 18 20:35 ESE 4   Clear   94 70     46%   100 29.84        
Jul 18 20:30 SE 4   Clear   94 71     47%   101 29.83        
Jul 18 20:25 ESE 4   Clear   94 71     48%   102 29.83        
Jul 18 20:20 ESE 5   Clear   94 71     48%   102 29.83        
Jul 18 20:15 ESE 5   Clear   95 73     49%   104 29.83        
Jul 18 20:10 ESE 5   Clear   95 73     49%   104 29.83        
Jul 18 20:05 ESE 5   Clear   95 73     49%   104 29.83        
Jul 18 20:00 ESE 6   Clear   95 73     49%   104 29.83        
Jul 18 19:55 ESE 7   Clear   95 73     49%   104 29.83        
Jul 18 19:50 ESE 7   Clear   95 72     48%   104 29.83        
Jul 18 19:45 SE 7   Clear   95 72     48%   104 29.82        
Jul 18 19:40 ESE 7   Clear   96 73     48%   106 29.82        
Jul 18 19:35 ESE 6   Clear   96 73     48%   106 29.82        
Jul 18 19:30 ESE 6   Clear   96 72     47%   105 29.82        
Jul 18 19:25 ESE 5   Clear   96 72     47%   105 29.82        
Jul 18 19:20 ESE 9   Clear   96 72     46%   105 29.82        
Jul 18 19:15 ESE 7   Clear   97 73     46%   107 29.82        
Jul 18 19:10 ESE 9   Clear   97 73     46%   107 29.82        
Jul 18 19:05 ESE 9   Clear   97 73     46%   107 29.82        
Jul 18 19:00 ESE 8   Clear   98 73     45%   109 29.82        
Jul 18 18:55 ESE 5   Clear   97 73     46%   107 29.82        
Jul 18 18:50 SE 6   Clear   97 73     46%   107 29.82        
Jul 18 18:45 SSE 7   Clear   98 73     45%   109 29.82        
Jul 18 18:40 SE 8   Clear   98 72     44%   108 29.82        
Jul 18 18:35 ESE 6   Clear   98 72     44%   108 29.81        
Jul 18 18:30 ESE 7   Clear   98 73     45%   109 29.81        
Jul 18 18:25 SE 6   Clear   98 72     44%   108 29.81        
Jul 18 18:20 ESE 7   Clear   98 72     44%   108 29.81        
Jul 18 18:15 ESE 6   Clear   98 73     45%   109 29.81        
Jul 18 18:10 SE 5   Clear   98 72     44%   108 29.81        
Jul 18 18:05 ESE 6   Clear   98 74     46%   109 29.81        
Jul 18 18:00 SE 5   Clear   98 74     46%   109 29.81        
Jul 18 17:55 E 7   Clear   98 74     46%   109 29.81        
Jul 18 17:50 SE 6   Clear   99 75     46%   112 29.82        
Jul 18 17:45 SE 8   Clear   99 74     45%   111 29.82        
Jul 18 17:40 ESE 11   Clear   99 75     46%   112 29.82        
Jul 18 17:35 ESE 8   Clear   99 73     44%   110 29.82        
Jul 18 17:30 ESE 8   Clear   99 74     45%   111 29.82        
Jul 18 17:25 ESE 7   Clear   99 74     45%   111 29.82        
Jul 18 17:20 ESE 8   Clear   99 74     45%   111 29.82        
Jul 18 17:15 E 7   Clear   99 74     45%   111 29.82        
Jul 18 17:10 SE 6   Clear   98 74     47%   110 29.82        
Jul 18 17:05 SE 7   Clear   98 75     48%   111 29.82        
Jul 18 17:00 SE 7   Clear   98 75     48%   111 29.82        
Jul 18 16:55 ESE 10   Clear   98 75     48%   111 29.83        
Jul 18 16:50 SE 9   Clear   98 74     47%   110 29.83        
Jul 18 16:45 ESE 6   Clear   98 75     48%   111 29.83        
Jul 18 16:40 ESE 8   Clear   98 76     49%   112 29.83        
Jul 18 16:35 ESE 9   Clear   98 75     48%   111 29.83        
Jul 18 16:30 SE 8   Clear   98 76     49%   112 29.83        
Jul 18 16:25 SE 10   Clear   98 76     49%   112 29.84        
Jul 18 16:20 ESE 9   Clear   99 76     49%   114 29.84        
Jul 18 16:15 ESE 7   Clear   98 76     49%   112 29.84        
Jul 18 16:10 ESE 7   Clear   99 75     47%   113 29.84        
Jul 18 16:05 SE 9   Clear   98 74     46%   109 29.84        
Jul 18 16:00 ESE 9   Clear   97 75     49%   109 29.84        
Jul 18 15:55 SE 6   Clear   97 75     49%   109 29.84        
Jul 18 15:50 SE 7   Clear   98 75     48%   111 29.85        
Jul 18 15:45 SE 9   Clear   98 75     48%   111 29.85        
Jul 18 15:40 ESE 10   Clear   98 75     48%   111 29.85        
Jul 18 15:35 ESE 12   Clear   98 75     48%   111 29.85        
Jul 18 15:30 ESE 10   Clear   98 75     48%   111 29.85        
Jul 18 15:25 ESE 11   Clear   98 75     48%   111 29.85        
Jul 18 15:20 SE 10   Clear   98 75     48%   111 29.86        
Jul 18 15:15 SE 10   Clear   99 76     49%   114 29.86        
Jul 18 15:10 ESE 11   Clear   98 75     48%   111 29.86        
Jul 18 15:05 ESE 8   Clear   99 76     48%   114 29.86        
Jul 18 15:00 ESE 10   Clear   99 76     48%   114 29.86        
Jul 18 14:55 SE 3   Clear   98 74     47%   110 29.86        
Jul 18 14:50 E 5   Clear   98 74     46%   109 29.87        
Jul 18 14:45 ESE 5   Clear   98 73     45%   109 29.87        
Jul 18 14:40 SE 6   Clear   98 74     46%   109 29.87        
Jul 18 14:35 SE 4   Clear   98 74     47%   110 29.87        
Jul 18 14:30 SSE 5   Clear   97 73     47%   108 29.87        
Jul 18 14:25 SE 4   Clear   98 74     46%   109 29.87        
Jul 18 14:20 SSE 9   Clear   98 73     45%   109 29.88        
Jul 18 14:15 SE 6   Clear   98 73     45%   109 29.87        
Jul 18 14:10 SE 5   Clear   99 74     45%   111 29.88        
Jul 18 14:05 SE 5   Clear   97 73     46%   107 29.88        
Jul 18 14:00 SE 9   Clear   98 73     45%   109 29.88        
Jul 18 13:55 SE 8   Clear   98 74     46%   109 29.88        
Jul 18 13:50 ESE 8   Clear   97 73     47%   108 29.88        
Jul 18 13:45 S 3   Clear   96 74     49%   107 29.89        
Jul 18 13:40 SE 4   Clear   96 73     48%   106 29.89        
Jul 18 13:35 SE 6   Clear   97 73     46%   107 29.9        
Jul 18 13:30 ESE 5   Clear   97 73     46%   107 29.9        
Jul 18 13:25 SE 7   Clear   97 73     47%   108 29.9        
Jul 18 13:20 SE 2   Clear   96 75     51%   108 29.9        
Jul 18 13:15 ESE 6   Clear   97 73     47%   108 29.9        
Jul 18 13:10 ESE 2   Clear   96 74     50%   108 29.9        
Jul 18 13:05 ESE 7   Clear   96 74     50%   108 29.91        
Jul 18 13:00 ESE 4   Clear   97 75     49%   109 29.91        
Jul 18 12:55 ESE 2   Clear   97 75     49%   109 29.91        
Jul 18 12:50 E 7   Clear   97 75     49%   109 29.91        
Jul 18 12:45 ESE 5   Clear   96 74     50%   108 29.92        
Jul 18 12:40 ESE 6   Clear   95 74     51%   106 29.92        
Jul 18 12:35 SSE 3   Clear   95 75     52%   107 29.92        
Jul 18 12:30 ESE 5   Clear   95 74     51%   106 29.92        
Jul 18 12:25 SE 6   Clear   95 75     52%   107 29.93        
Jul 18 12:20 S 2   Clear   95 75     53%   107 29.93        
Jul 18 12:15 SSE 3   Clear   96 74     49%   107 29.93        
Jul 18 12:10 ESE 3   Clear   95 73     50%   105 29.93        
Jul 18 12:05 S 2   Clear   94 74     52%   104 29.93        
Jul 18 12:00 SSE 5   Clear   95 73     49%   104 29.93        
Jul 18 11:55 SE 3   Clear   94 73     51%   103 29.93        
Jul 18 11:50 ENE 2   Clear   94 73     51%   103 29.94        
Jul 18 11:45 E 4   Clear   93 73     52%   102 29.94        
Jul 18 11:40 SE 3   Clear   93 72     51%   101 29.94        
Jul 18 11:35 NE 2   Clear   93 73     53%   102 29.95        
Jul 18 11:30 ESE 4   Clear   93 75     56%   104 29.95        
Jul 18 11:25 SSE 2   Clear   92 74     56%   102 29.95        
Jul 18 11:20 SE 2   Clear   93 74     55%   104 29.95        
Jul 18 11:15 SE 3   Clear   92 75     58%   103 29.96        
Jul 18 11:10 SE 5   Clear   92 75     58%   103 29.96        
Jul 18 11:05 SE 3   Clear   92 75     58%   103 29.96        
Jul 18 11:00 ESE 6   Clear   92 75     58%   103 29.96        
Jul 18 10:55 E 8   Clear   92 75     58%   103 29.96        
Jul 18 10:50 ESE 5   Clear   91 75     60%   102 29.96        
Jul 18 10:45 SE 5   Clear   91 75     59%   101 29.96        
Jul 18 10:40 E 6   Clear   92 75     58%   103 29.97        
Jul 18 10:35 ESE 7   Clear   91 75     60%   102 29.97        
Jul 18 10:30 SE 3   Clear   90 75     61%   100 29.97        
Jul 18 10:25 ESE 5   Clear   91 75     59%   101 29.97        
Jul 18 10:20 E 5   Clear   91 75     59%   101 29.97        
Jul 18 10:15 E 7   Clear   91 74     58%   101 29.97        
Jul 18 10:10 ESE 6   Clear   91 76     61%   103 29.97        
Jul 18 10:05 ESE 6   Clear   90 75     62%   101 29.97        
Jul 18 10:00 ESE 9   Clear   90 75     62%   101 29.97        
Jul 18 09:55 ESE 6   Clear   89 75     63%   99 29.97        
Jul 18 09:50 ESE 9   Clear   89 74     62%   98 29.97        
Jul 18 09:45 ESE 6   Clear   89 74     61%   98 29.97        
Jul 18 09:40 ESE 9   Clear   89 74     62%   98 29.97        
Jul 18 09:35 ESE 8   Clear   89 75     63%   99 29.97        
Jul 18 09:30 ESE 7   Clear   89 75     64%   99 29.98        
Jul 18 09:25 E 7   Clear   89 76     65%   100 29.98        
Jul 18 09:20 ESE 7   Clear   88 75     65%   98 29.97        
Jul 18 09:15 ESE 8   Clear   88 75     65%   98 29.98        
Jul 18 09:10 ESE 7   Clear   88 75     65%   98 29.98        
Jul 18 09:05 ESE 8   Clear   88 75     65%   98 29.97        
Jul 18 09:00 ESE 7   Clear   88 75     66%   98 29.97        
Jul 18 08:55 ESE 8   Clear   88 75     66%   98 29.97        
Jul 18 08:50 ESE 9   Clear   87 74     66%   96 29.97        
Jul 18 08:45 ESE 9   Clear   87 75     68%   97 29.97        
Jul 18 08:40 ESE 6   Clear   87 75     68%   97 29.97        
Jul 18 08:35 ESE 8   Clear   86 75     69%   95 29.97        
Jul 18 08:30 ESE 5   Clear   86 75     71%   95 29.97        
Jul 18 08:25 ESE 5   Clear   85 75     72%   93 29.97        
Jul 18 08:20 E 5   Clear   85 75     72%   93 29.96        
Jul 18 08:15 E 5   Clear   85 75     72%   93 29.96        
Jul 18 08:10 ESE 5   Clear   84 74     72%   91 29.96        
Jul 18 08:05 ESE 3   Clear   84 74     72%   91 29.96        
Jul 18 08:00 ESE 5   Clear   84 74     72%   91 29.96        
Jul 18 07:55 E 5   Clear   84 74     72%   91 29.95        
Jul 18 07:50 E 5   Clear   84 74     72%   91 29.95        
Jul 18 07:45 E 5   Clear   83 73     72%   89 29.95        
Jul 18 07:40 E 3   Clear   83 73     73%   89 29.94        
Jul 18 07:35 E 4   Clear   83 73     73%   89 29.93        
Jul 18 07:30 E 3   Clear   83 73     73%   89 29.93        
Jul 18 07:25 ENE 3   Clear   83 73     73%   89 29.93        
Jul 18 07:20 E 3   Clear   83 74     74%   89 29.93        
Jul 18 07:15 ESE 3   Clear   83 74     75%   90 29.92        
Jul 18 07:10 E 3   Clear   82 73     75%   88 29.92        
Jul 18 07:05 E 2   Clear   82 73     75%   88 29.91        
Jul 18 07:00 E 1   Clear   82 74     76%   88 29.91        
Jul 18 06:55 E 3   Clear   83 73     73%   89 29.91        
Jul 18 06:50 ESE 3   Clear   83 73     72%   89 29.91        
Jul 18 06:45 SE 2   Clear   83 73     71%   89 29.91        
Jul 18 06:40 ESE 3   Clear   83 73     71%   89 29.9        
Jul 18 06:35 SE 3   Clear   83 73     71%   89 29.9        
Jul 18 06:30 SE 5   Clear   83 73     72%   89 29.9        
Jul 18 06:25 SE 5   Clear   83 73     72%   89 29.9        
Jul 18 06:20 SE 2   Clear   83 73     72%   89 29.9        
Jul 18 06:15 SE 5   Clear   83 72     70%   88 29.89        
Jul 18 06:10 SSE 3   Clear   83 72     70%   88 29.88        
Jul 18 06:05 S 1   Clear   83 72     70%   88 29.88        
Jul 18 06:00 Calm   Clear   83 73     71%   89 29.88        
Jul 18 05:55 WNW 1   Clear   82 72     71%   87 29.88        
Jul 18 05:50 W 3   Clear   82 73     74%   87 29.88        
Jul 18 05:45 NNW 3   Clear   81 72     73%   85 29.88        
Jul 18 05:40 N 4   Clear   82 72     71%   87 29.88        
Jul 18 05:35 NNE 5   Clear   82 72     71%   87 29.88        
Jul 18 05:30 N 6   Clear   82 72     71%   87 29.88        
Jul 18 05:25 N 8   Clear   82 72     72%   87 29.89        
Jul 18 05:20 NNE 6   Clear   82 73     74%   87 29.88        
Jul 18 05:15 N 4   Clear   82 73     74%   87 29.88        
Jul 18 05:10 NNE 6   Clear   82 73     74%   87 29.89        
Jul 18 05:05 NNE 6   Clear   81 73     76%   86 29.9        
Jul 18 05:00 N 5   Clear   81 73     77%   86 29.9        
Jul 18 04:55 NNE 5   Clear   81 73     76%   86 29.91        
Jul 18 04:50 NE 5   Clear   81 73     77%   86 29.91        
Jul 18 04:45 NNE 6   Clear   81 73     78%   86 29.91        
Jul 18 04:40 NNE 7   Clear   80 72     78%   84 29.92        
Jul 18 04:35 NE 8   Clear   80 72     78%   84 29.93        
Jul 18 04:30 NE 8   Clear   80 73     79%   84 29.92        
Jul 18 04:25 NE 6   Clear   80 73     80%   84 29.92        
Jul 18 04:20 N 5   Clear   80 73     80%   84 29.92        
Jul 18 04:15 NNW 2   Clear   80 73     78%   84 29.92        
Jul 18 04:10 NNE 5   Clear   81 72     74%   85 29.93        
Jul 18 04:05 NE 3   Clear   82 72     72%   87 29.93        
Jul 18 04:00 E 7   Clear   85 73     68%   92 29.94        
Jul 18 03:55 SE 7   Clear   86 73     65%   93 29.94        
Jul 18 03:50 SE 9   Clear   87 72     62%   94 29.95        
Jul 18 03:45 SE 15   Clear   89 71     56%   95 29.96        
Jul 18 03:40 SE 14   Clear   89 70     54%   94 29.96        
Jul 18 03:35 ESE 15   Clear   89 71     56%   95 29.97        
Jul 18 03:30 ESE 12   Clear   89 72     57%   96 29.95        
Jul 18 03:25 SE 10   Clear   89 71     56%   95 29.93        
Jul 18 03:20 ESE 12   Clear   89 71     55%   95 29.93        
Jul 18 03:15 ESE 12   Clear   89 71     55%   95 29.92        
Jul 18 03:10 SE 11   Clear   89 71     56%   95 29.92        
Jul 18 03:05 ESE 11   Clear   89 71     55%   95 29.91        
Jul 18 03:00 ESE 13   Clear   90 72     55%   97 29.91        
Jul 18 02:55 SE 11   Clear   90 71     54%   96 29.9        
Jul 18 02:50 SE 10   Clear   90 71     54%   96 29.9        
Jul 18 02:45 ESE 10   Clear   90 70     52%   95 29.89        
Jul 18 02:40 ESE 7   Clear   90 66     46%   93 29.89        
Jul 18 02:35 ESE 7   Clear   90 66     45%   92 29.88        
Jul 18 02:30 SE 5   Clear   90 64     43%   92 29.88        
Jul 18 02:25 ESE 4   Clear   90 64     43%   92 29.87        
Jul 18 02:20 ESE 3   Clear   91 65     43%   93 29.86        
Jul 18 02:15 ESE 2   Clear   91 65     43%   93 29.85        
Jul 18 02:10 ESE 1   Clear   91 65     43%   93 29.85        
Jul 18 02:05 ESE 3   Clear   91 65     43%   93 29.85        
Jul 18 02:00 ESE 1   Clear   91 65     43%   93 29.85        
Jul 18 01:55 E 2   Clear   90 64     43%   92 29.85        
Jul 18 01:50 Calm   Clear   90 64     43%   92 29.85        
Jul 18 01:45 E 1   Clear   90 64     43%   92 29.84        
Jul 18 01:40 E 1   Clear   90 65     44%   92 29.84        
Jul 18 01:35 E 1   Clear   90 65     44%   92 29.84        
Jul 18 01:30 E 1   Clear   90 65     44%   92 29.84        
Jul 18 01:25 E 1   Clear   90 64     43%   92 29.84        
Jul 18 01:20 NNE 1   Clear   91 65     43%   93 29.84        
Jul 18 01:15 Calm   Clear   91 65     42%   93 29.83        
Jul 18 01:10 NNE 1   Clear   91 65     42%   93 29.83        
Jul 18 01:05 NNE 2   Clear   91 65     42%   93 29.83        
Jul 18 01:00 Calm   Clear   91 65     42%   93 29.83        
Jul 18 00:55 NNE 1   Clear   91 65     43%   93 29.83        
Jul 18 00:50 WNW 3   Clear   91 65     42%   93 29.83        
Jul 18 00:45 WNW 4   Clear   91 65     42%   93 29.83        
Jul 18 00:40 WNW 3   Clear   92 66     42%   95 29.83        
Jul 18 00:35 NW 2   Clear   92 66     42%   95 29.83        
Jul 18 00:30 WNW 3   Clear   92 66     42%   95 29.83        
Jul 18 00:25 WNW 5   Clear   92 66     42%   95 29.82        
Jul 18 00:20 WNW 5   Clear   92 66     42%   95 29.82        
Jul 18 00:15 WNW 4   Clear   93 66     41%   96 29.82        
Jul 18 00:10 W 4   Clear   93 66     41%   96 29.82        
Jul 18 00:05 WNW 2   Clear   93 66     41%   96 29.82        
Jul 18 00:00 WNW 5   Clear   93 65     40%   95 29.81        
Jul 17 23:55 W 3   Clear   94 66     40%   97 29.81        
Jul 17 23:50 W 2   Clear   94 66     40%   97 29.81        
Jul 17 23:45 W 3   Clear   94 66     40%   97 29.82        
Jul 17 23:40 W 2   Clear   93 66     41%   96 29.82        
Jul 17 23:35 W 2   Clear   94 66     40%   97 29.82        
Jul 17 23:30 WNW 2   Clear   94 66     40%   97 29.82        
Jul 17 23:25 WNW 3   Clear   94 65     39%   97 29.82        
Jul 17 23:20 W 4   Clear   94 66     40%   97 29.82        
Jul 17 23:15 W 4   Clear   94 65     39%   97 29.82        
Jul 17 23:10 WNW 3   Clear   94 65     39%   97 29.82        
Jul 17 23:05 WNW 2   Clear   94 66     40%   97 29.82        
Jul 17 23:00 NW 1   Clear   94 66     40%   97 29.82        
Jul 17 22:55 NNW 3   Clear   94 66     40%   97 29.82        
Jul 17 22:50 NNW 3   Clear   94 66     40%   97 29.82        
Jul 17 22:45 N 6   Clear   94 66     40%   97 29.83        
Jul 17 22:40 NNW 4   Clear   94 66     40%   97 29.83        
Jul 17 22:35 NNW 3   Clear   94 66     40%   97 29.83        
Jul 17 22:30 NW 3   Clear   94 66     40%   97 29.83        
Jul 17 22:25 NNW 4   Clear   94 66     40%   97 29.83        
Jul 17 22:20 NNW 3   Clear   94 65     39%   97 29.82        
Jul 17 22:15 NNW 2   Clear   95 66     39%   98 29.82        
Jul 17 22:10 WNW 3   Clear   95 66     39%   98 29.82        
Jul 17 22:05 NW 2   Clear   95 66     39%   98 29.83        
Jul 17 22:00 NW 2   Clear   95 65     38%   98 29.82        
Jul 17 21:55 NW 3   Clear   96 66     38%   100 29.82        
Jul 17 21:50 NW 4   Clear   96 65     37%   99 29.82        
Jul 17 21:45 NNW 3   Clear   96 65     37%   99 29.82        
Jul 17 21:40 N 4   Clear   97 66     37%   101 29.82        
Jul 17 21:35 N 5   Clear   97 66     37%   101 29.81        
Jul 17 21:30 N 3   Clear   97 68     39%   102 29.8        
Jul 17 21:25 NE 3   Clear   97 70     42%   104 29.8        
Jul 17 21:20 NE 3   Clear   97 70     42%   104 29.8        
Jul 17 21:15 NNE 3   Clear   97 69     41%   103 29.79        
Jul 17 21:10 NE 3   Clear   97 69     41%   103 29.79        
Jul 17 21:05 E 2   Clear   98 70     41%   106 29.78        
Jul 17 21:00 ESE 5   Clear   98 69     40%   105 29.78        
Jul 17 20:55 ESE 6   Clear   98 69     40%   105 29.78        
Jul 17 20:50 E 6   Clear   98 70     40%   105 29.78        
Jul 17 20:45 ESE 5   Clear   98 69     40%   105 29.78        
Jul 17 20:40 ESE 6   Clear   98 70     40%   105 29.77        
Jul 17 20:35 ESE 8   Clear   99 70     39%   106 29.77        
Jul 17 20:30 E 5   Clear   99 69     38%   106 29.77        
Jul 17 20:25 E 3   Clear   99 69     38%   106 29.77        
Jul 17 20:20 E 2   Clear   99 70     39%   106 29.76        
Jul 17 20:15 E 4   Clear   99 70     39%   106 29.76        
Jul 17 20:10 E 6   Clear   99 70     39%   106 29.76        
Jul 17 20:05 ESE 3   Clear   99 70     39%   106 29.76        
Jul 17 20:00 ESE 5   Clear   99 70     39%   106 29.75        
Jul 17 19:55 ESE 5   Clear   100 71     39%   108 29.75        
Jul 17 19:50 ESE 5   Clear   100 70     38%   108 29.75        
Jul 17 19:45 ESE 4   Clear   100 70     38%   108 29.75        
Jul 17 19:40 ESE 5   Clear   100 70     38%   108 29.75        
Jul 17 19:35 ESE 6   Clear   100 69     37%   107 29.75        
Jul 17 19:30 ESE 6   Clear   101 70     37%   109 29.75        
Jul 17 19:25 ESE 7   Clear   101 70     37%   109 29.75        
Jul 17 19:20 ESE 6   Clear   101 70     37%   109 29.75        
Jul 17 19:15 ESE 5   Clear   101 70     37%   109 29.74        
Jul 17 19:10 ESE 6   Clear   101 70     37%   109 29.74        
Jul 17 19:05 SE 5   Clear   101 70     37%   109 29.74        
Jul 17 19:00 SE 5   Clear   101 70     37%   109 29.74        
Jul 17 18:55 SE 5   Clear   102 70     36%   110 29.74        
Jul 17 18:50 ESE 7   Clear   102 70     36%   110 29.74        
Jul 17 18:45 ESE 6   Clear   102 69     35%   110 29.74        
Jul 17 18:40 SE 5   Clear   102 69     35%   110 29.74        
Jul 17 18:35 ESE 3   Clear   102 70     36%   110 29.74        
Jul 17 18:30 SE 6   Clear   102 69     35%   110 29.74        
Jul 17 18:25 SE 6   Clear   103 68     33%   110 29.74        
Jul 17 18:20 ESE 5   Clear   103 67     32%   109 29.74        
Jul 17 18:15 ESE 4   Clear   103 67     32%   109 29.74        
Jul 17 18:10 ESE 5   Clear   103 66     31%   108 29.74        
Jul 17 18:05 ESE 7   Clear   103 66     31%   108 29.74        
Jul 17 18:00 SE 5   Clear   103 66     31%   108 29.74        
Jul 17 17:55 SE 6   Clear   103 66     31%   108 29.74        
Jul 17 17:50 SE 7   Clear   103 65     30%   108 29.74        
Jul 17 17:45 ESE 6   Clear   104 66     30%   110 29.74        
Jul 17 17:40 SE 6   Clear   104 66     30%   110 29.75        
Jul 17 17:35 ESE 5   Clear   104 65     29%   109 29.75        
Jul 17 17:30 SE 5   Clear   105 66     29%   111 29.75        
Jul 17 17:25 ESE 7   Clear   105 66     29%   111 29.75        
Jul 17 17:20 ESE 7   Clear   105 66     29%   111 29.75        
Jul 17 17:15 SSE 3   Clear   104 66     30%   110 29.75        
Jul 17 17:10 E 5   Clear   105 66     29%   111 29.75        
Jul 17 17:05 ESE 8   Clear   106 67     29%   113 29.75        
Jul 17 17:00 ESE 7   Clear   105 66     29%   111 29.75        
Jul 17 16:55 E 6   Clear   104 66     30%   110 29.76        
Jul 17 16:50 SSE 5   Clear   104 66     30%   110 29.76        
Jul 17 16:45 ESE 7   Clear   105 66     29%   111 29.76        
Jul 17 16:40 ESE 6   Clear   104 67     31%   110 29.76        
Jul 17 16:35 SE 4   Clear   104 68     32%   111 29.77        
Jul 17 16:30 SE 5   Clear   105 68     31%   112 29.77        
Jul 17 16:25 SE 3   Clear   105 67     30%   112 29.77        
Jul 17 16:20 E 3   Clear   105 67     30%   112 29.77        
Jul 17 16:15 ESE 7   Clear   105 67     30%   112 29.78        
Jul 17 16:10 ESE 6   Clear   104 66     30%   110 29.78        
Jul 17 16:05 SE 3   Clear   104 66     30%   110 29.78        
Jul 17 16:00 SE 4   Clear   104 67     31%   110 29.78        
Jul 17 15:55 SE 7   Clear   106 67     29%   113 29.78        
Jul 17 15:50 ESE 6   Clear   105 66     29%   111 29.78        
Jul 17 15:45 SE 5   Clear   105 67     30%   112 29.79        
Jul 17 15:40 SE 3   Clear   104 67     31%   110 29.79        
Jul 17 15:35 ESE 3   Clear   104 68     32%   111 29.79        
Jul 17 15:30 SE 6   Clear   103 67     32%   109 29.79        
Jul 17 15:25 SSE 3   Clear   104 68     32%   111 29.79        
Jul 17 15:20 SSE 5   Clear   103 67     32%   109 29.8        
Jul 17 15:15 E 6   Clear   102 67     33%   108 29.8        
Jul 17 15:10 ESE 5   Clear   103 67     32%   109 29.8        
Jul 17 15:05 ENE 2   Clear   103 67     32%   109 29.8        
Jul 17 15:00 SSE 7   Clear   103 67     32%   109 29.8        
Jul 17 14:55 E 3   Clear   102 67     33%   108 29.8        
Jul 17 14:50 SE 3   Clear   102 67     32%   107 29.81        
Jul 17 14:45 SE 5   Clear   103 67     32%   109 29.81        
Jul 17 14:40 SE 5   Clear   104 67     31%   110 29.81        
Jul 17 14:35 SE 2   Clear   102 66     31%   106 29.81        
Jul 17 14:30 SE 5   Clear   102 66     31%   106 29.82        
Jul 17 14:25 S 2   Clear   102 67     32%   107 29.82        
Jul 17 14:20 SSE 3   Clear   102 65     30%   106 29.82        
Jul 17 14:15 ESE 7   Clear   102 66     31%   106 29.82        
Jul 17 14:10 SSE 3   Clear   101 68     35%   107 29.82        
Jul 17 14:05 SSE 4   Clear   101 67     33%   106 29.83        
Jul 17 14:00 SE 5   Clear   101 66     32%   105 29.83        
Jul 17 13:55 SE 5   Clear   100 65     32%   103 29.83        
Jul 17 13:50 ESE 6   Clear   101 67     34%   107 29.83        
Jul 17 13:45 SE 8   Clear   100 67     35%   105 29.84        
Jul 17 13:40 SE 7   Clear   101 67     34%   107 29.84        
Jul 17 13:35 SE 1   Clear   100 68     36%   106 29.84        
Jul 17 13:30 ESE 5   Clear   100 67     35%   105 29.84        
Jul 17 13:25 ESE 4   Clear   100 67     35%   105 29.84        
Jul 17 13:20 E 5   Clear   99 67     36%   104 29.84        
Jul 17 13:15 SE 5   Clear   100 66     33%   104 29.85        
Jul 17 13:10 SE 2   Clear   99 66     35%   104 29.85        
Jul 17 13:05 SE 4   Clear   99 66     35%   104 29.85        
Jul 17 13:00 SE 4   Clear   99 66     35%   104 29.85        
Jul 17 12:55 ESE 4   Clear   100 68     36%   106 29.85        
Jul 17 12:50 SE 6   Clear   99 68     37%   105 29.85        
Jul 17 12:45 ESE 2   Clear   99 67     36%   104 29.85        
Jul 17 12:40 ESE 7   Clear   99 69     38%   106 29.86        
Jul 17 12:35 SE 3   Clear   99 68     37%   105 29.86        
Jul 17 12:30 SSE 6   Clear   99 69     38%   106 29.86        
Jul 17 12:25 SE 5   Clear   98 69     39%   104 29.86        
Jul 17 12:20 SSE 5   Clear   97 69     40%   103 29.87        
Jul 17 12:15 SE 5   Clear   98 69     39%   104 29.87        
Jul 17 12:10 ESE 3   Clear   97 69     40%   103 29.87        
Jul 17 12:05 S 5   Clear   98 69     40%   105 29.87        
Jul 17 12:00 ESE 9   Clear   97 67     38%   102 29.88        
Jul 17 11:55 SE 5   Clear   97 70     42%   104 29.88        
Jul 17 11:50 SE 4   Clear   97 69     41%   103 29.88        
Jul 17 11:45 ESE 3   Clear   96 71     44%   103 29.88        
Jul 17 11:40 SSE 6   Clear   97 71     43%   105 29.88        
Jul 17 11:35 SE 6   Clear   96 70     43%   103 29.88        
Jul 17 11:30 SE 5   Clear   95 69     43%   101 29.88        
Jul 17 11:25 E 3   Clear   95 68     42%   100 29.88        
Jul 17 11:20 ESE 5   Clear   95 69     43%   101 29.89        
Jul 17 11:15 SE 5   Clear   95 69     43%   101 29.89        
Jul 17 11:10 E 5   Clear   95 68     42%   100 29.89        
Jul 17 11:05 ESE 9   Clear   95 68     41%   99 29.89        
Jul 17 11:00 E 5   Clear   94 67     42%   98 29.9        
Jul 17 10:55 ESE 5   Clear   94 69     44%   99 29.89        
Jul 17 10:50 SE 7   Clear   94 69     44%   99 29.9        
Jul 17 10:45 ESE 8   Clear   94 69     44%   99 29.9        
Jul 17 10:40 ESE 10   Clear   94 67     42%   98 29.9        
Jul 17 10:35 ESE 6   Clear   94 68     43%   99 29.9        
Jul 17 10:30 SE 9   Clear   93 67     43%   97 29.89        
Jul 17 10:25 ESE 8   Clear   94 68     43%   99 29.89        
Jul 17 10:20 SE 8   Clear   93 67     43%   97 29.89        
Jul 17 10:15 SE 6   Clear   94 67     42%   98 29.9        
Jul 17 10:10 ESE 9   Clear   94 67     42%   98 29.9        
Jul 17 10:05 ESE 7   Clear   93 67     43%   97 29.9        
Jul 17 10:00 SE 9   Clear   93 66     41%   96 29.9        
Jul 17 09:55 ESE 9   Clear   93 66     41%   96 29.9        
Jul 17 09:50 ESE 7   Clear   93 66     42%   96 29.9        
Jul 17 09:45 ESE 10   Clear   92 65     41%   94 29.9        
Jul 17 09:40 ESE 7   Clear   92 66     42%   95 29.9        
Jul 17 09:35 SE 7   Clear   92 66     42%   95 29.9        
Jul 17 09:30 SSE 5   Clear   92 66     42%   95 29.9        
Jul 17 09:25 ESE 7   Clear   92 65     41%   94 29.9        
Jul 17 09:20 ESE 7   Clear   92 66     42%   95 29.9        
Jul 17 09:15 ESE 6   Clear   92 66     42%   95 29.89        
Jul 17 09:10 SE 6   Clear   92 66     43%   95 29.9        
Jul 17 09:05 SE 4   Clear   92 66     43%   95 29.9        
Jul 17 09:00 ESE 5   Clear   91 66     44%   94 29.89        
Jul 17 08:55 ESE 7   Clear   91 67     45%   94 29.89        
Jul 17 08:50 ESE 5   Clear   91 67     45%   94 29.89        
Jul 17 08:45 ESE 5   Clear   91 67     45%   94 29.89        
Jul 17 08:40 E 5   Clear   91 67     45%   94 29.89        
Jul 17 08:35 ESE 5   Clear   91 67     45%   94 29.89        
Jul 17 08:30 SE 3   Clear   90 66     46%   93 29.89        
Jul 17 08:25 ESE 6   Clear   91 67     45%   94 29.88        
Jul 17 08:20 E 3   Clear   91 67     46%   95 29.88        
Jul 17 08:15 ESE 4   Clear   90 66     45%   92 29.88        
Jul 17 08:10 ESE 2   Clear   90 66     46%   93 29.88        
Jul 17 08:05 SE 2   Clear   90 66     45%   92 29.88        
Jul 17 08:00 SE 3   Clear   90 66     46%   93 29.88        
Jul 17 07:55 ESE 3   Clear   89 65     45%   91 29.88        
Jul 17 07:50 E 2   Clear   89 66     47%   92 29.88        
Jul 17 07:45 E 1   Clear   88 65     46%   90 29.88        
Jul 17 07:40 E 2   Clear   88 65     47%   90 29.88        
Jul 17 07:35 E 2   Clear   88 66     48%   90 29.88        
Jul 17 07:30 E 2   Clear   87 65     49%   89 29.87        
Jul 17 07:25 E 3   Clear   87 65     49%   89 29.87        
Jul 17 07:20 ENE 3   Clear   87 65     49%   89 29.87        
Jul 17 07:15 E 2   Clear   87 65     49%   89 29.87        
Jul 17 07:10 E 3   Clear   87 65     49%   89 29.87        
Jul 17 07:05 E 2   Clear   87 65     48%   89 29.87        
Jul 17 07:00 E 4   Clear   87 65     48%   89 29.86        
Jul 17 06:55 E 4   Clear   87 65     48%   89 29.86        
Jul 17 06:50 E 3   Clear   87 65     48%   89 29.86        
Jul 17 06:45 ENE 3   Clear   87 65     48%   89 29.86        
Jul 17 06:40 E 3   Clear   87 64     47%   88 29.85        
Jul 17 06:35 E 3   Clear   87 65     48%   89 29.85        
Jul 17 06:30 ENE 3   Clear   87 64     47%   88 29.85        
Jul 17 06:25 E 4   Clear   87 64     46%   88 29.85        
Jul 17 06:20 E 5   Clear   87 64     47%   88 29.85        
Jul 17 06:15 E 2   Clear   87 64     46%   88 29.85        
Jul 17 06:10 E 3   Clear   88 65     46%   90 29.85        
Jul 17 06:05 SE 4   Clear   88 63     44%   89 29.84        
Jul 17 06:00 ESE 3   Clear   89 63     42%   90 29.84        
Jul 17 05:55 ESE 3   Clear   89 60     38%   89 29.84        
Jul 17 05:50 WSW 2   Clear   90 59     36%   89 29.83        
Jul 17 05:45 WSW 2   Clear   90 59     36%   89 29.83        
Jul 17 05:40 WSW 5   Clear   90 59     36%   89 29.82        
Jul 17 05:35 NW 6   Clear   90 59     36%   89 29.81        
Jul 17 05:30 NW 3   Clear   89 59     37%   88 29.81        
Jul 17 05:25 SSW 2   Clear   89 59     36%   88 29.81        
Jul 17 05:20 NW 6   Clear   90 59     36%   89 29.8        
Jul 17 05:15 WNW 6   Clear   90 59     36%   89 29.78        
Jul 17 05:10 W 8   Clear   90 59     36%   89 29.78        
Jul 17 05:05 WNW 8   Clear   90 59     35%   89 29.78        
Jul 17 05:00 WNW 9   Clear   90 59     35%   89 29.78        
Jul 17 04:55 WNW 10   Clear   90 59     36%   89 29.78        
Jul 17 04:50 W 10   Clear   90 59     35%   89 29.77        
Jul 17 04:45 WNW 8   Clear   90 59     36%   89 29.77        
Jul 17 04:40 WNW 7   Clear   90 59     35%   89 29.77        
Jul 17 04:35 W 9   Clear   90 59     36%   89 29.77        
Jul 17 04:30 W 10   Clear   90 59     36%   89 29.76        
Jul 17 04:25 WNW 9   Clear   91 59     35%   90 29.76        
Jul 17 04:20 WNW 13   Clear   91 59     35%   90 29.76        
Jul 17 04:15 WNW 6   Clear   91 59     34%   90 29.76        
Jul 17 04:10 WNW 9   Clear   91 59     34%   90 29.76        
Jul 17 04:05 WNW 9   Clear   91 59     34%   90 29.76        
Jul 17 04:00 WNW 12   Clear   91 59     34%   90 29.76        
Jul 17 03:55 WNW 9   Clear   91 59     34%   90 29.76        
Jul 17 03:50 WNW 9   Clear   91 58     33%   90 29.76        
Jul 17 03:45 W 8   Clear   91 58     33%   90 29.76        
Jul 17 03:40 WNW 7   Clear   91 58     33%   90 29.76        
Jul 17 03:35 WNW 9   Clear   91 58     33%   90 29.76        
Jul 17 03:30 WNW 7   Clear   92 59     33%   91 29.76        
Jul 17 03:25 WNW 12   Clear   92 59     33%   91 29.76        
Jul 17 03:20 WNW 9   Clear   91 58     33%   90 29.76        
Jul 17 03:15 WNW 7   Clear   92 60     34%   92 29.76        
Jul 17 03:10 WNW 9   Clear   92 59     33%   91 29.76        
Jul 17 03:05 WNW 13   Clear   92 59     33%   91 29.76        
Jul 17 03:00 WNW 13   Clear   92 59     33%   91 29.75        
Jul 17 02:55 WNW 15   Clear   92 59     33%   91 29.75        
Jul 17 02:50 WNW 13   Clear   92 59     33%   91 29.75        
Jul 17 02:45 WNW 13   Clear   92 59     33%   91 29.75        
Jul 17 02:40 WNW 13   Clear   92 59     33%   91 29.75        
Jul 17 02:35 WNW 14   Clear   91 58     33%   90 29.75        
Jul 17 02:30 WNW 13   Clear   91 59     34%   90 29.75        
Jul 17 02:25 WNW 14   Clear   91 59     34%   90 29.75        
Jul 17 02:20 WNW 13   Clear   91 58     33%   90 29.75        
Jul 17 02:15 WNW 14   Clear   91 59     34%   90 29.75        
Jul 17 02:10 WNW 16   Clear   91 59     34%   90 29.75        
Jul 17 02:05 WNW 14   Clear   92 60     34%   92 29.75        
Jul 17 02:00 WNW 13   Clear   92 60     34%   92 29.75        
Jul 17 01:55 NW 14   Clear   92 60     34%   92 29.75        
Jul 17 01:50     Clear   92 59     33%   91 29.75        
Jul 17 01:45 WNW 13   Clear   92 60     34%   92 29.75        
Jul 17 01:40 NW 16   Clear   92 59     33%   91 29.75        
Jul 17 01:35 NW 14   Clear   92 60     34%   92 29.75        
Jul 17 01:30 WNW 16   Clear   92 60     34%   92 29.75        
Jul 17 01:25 WNW 13   Clear   92 60     34%   92 29.75        
Jul 17 01:20 NW 13   Clear   92 60     35%   92 29.75        
Jul 17 01:15 WNW 14   Clear   91 59     35%   90 29.75        
Jul 17 01:10 NW 15   Clear   91 59     35%   90 29.75        
Jul 17 01:05 NW 15   Clear   91 60     36%   91 29.75        
Jul 17 01:00 NW 13   Clear   91 60     36%   91 29.75        
Jul 17 00:55 NW 16   Clear   91 60     36%   91 29.75        
Jul 17 00:50 NW 17   Clear   91 60     36%   91 29.75        
Jul 17 00:45 NW 17   Clear   91 60     36%   91 29.76        
Jul 17 00:40 WNW 15   Clear   91 60     36%   91 29.76        
Jul 17 00:35 NW 14   Clear   91 60     36%   91 29.76        
Jul 17 00:30 NW 14   Clear   92 61     36%   92 29.76        
Jul 17 00:25 NW 11   Clear   92 61     36%   92 29.76        
Jul 17 00:20 WNW 14   Clear   92 61     36%   92 29.76        
Jul 17 00:15 WNW 10   Clear   92 60     35%   92 29.76        
Jul 17 00:10 WNW 14   Clear   92 60     34%   92 29.76        
Jul 17 00:05 NW 11   Clear   92 60     35%   92 29.76        
Jul 17 00:00 NW 11   Clear   92 61     36%   92 29.76        
Jul 16 23:55 NW 12   Clear   92 60     35%   92 29.76        
Jul 16 23:50 NW 9   Clear   92 60     35%   92 29.76        
Jul 16 23:45 WNW 9   Clear   92 60     35%   92 29.76        
Jul 16 23:40 NW 6   Clear   92 60     35%   92 29.76        
Jul 16 23:35 NW 8   Clear   92 60     35%   92 29.76        
Jul 16 23:30 NW 12   Clear   93 61     35%   93 29.76        
Jul 16 23:25 NW 10   Clear   93 61     35%   93 29.76        
Jul 16 23:20 WNW 13   Clear   93 61     35%   93 29.76        
Jul 16 23:15 WNW 10   Clear   93 61     35%   93 29.76        
Jul 16 23:10 WNW 8   Clear   93 61     35%   93 29.76        
Jul 16 23:05 WNW 9   Clear   94 61     34%   94 29.76        
Jul 16 23:00 WNW 10   Clear   94 60     33%   94 29.76        
Jul 16 22:55 NW 11   Clear   94 60     33%   94 29.76        
Jul 16 22:50 WNW 11   Clear   95 60     32%   95 29.76        
Jul 16 22:45 NW 8   Clear   95 60     32%   95 29.76        
Jul 16 22:40 WNW 8   Clear   95 60     32%   95 29.76        
Jul 16 22:35 NW 8   Clear   95 60     32%   95 29.76        
Jul 16 22:30 NW 8   Clear   95 60     31%   95 29.76        
Jul 16 22:25 NW 6   Clear   95 60     32%   95 29.76        
Jul 16 22:20 NW 7   Clear   95 60     31%   95 29.76        
Jul 16 22:15 NW 7   Clear   95 60     31%   95 29.76        
Jul 16 22:10 NW 7   Clear   95 59     30%   94 29.76        
Jul 16 22:05 NW 14   Clear   96 59     30%   96 29.75        
Jul 16 22:00 WNW 12   Clear   96 59     29%   95 29.75        
Jul 16 21:55 WNW 16   Clear   96 59     29%   95 29.74        
Jul 16 21:50 WNW 16   Clear   97 58     28%   96 29.74        
Jul 16 21:45 WNW 12   Clear   97 58     28%   96 29.74        
Jul 16 21:40 WNW 13   Clear   97 58     28%   96 29.74        
Jul 16 21:35 NW 15   Clear   98 58     27%   98 29.73        
Jul 16 21:30 NW 14   Clear   98 58     27%   98 29.73        
Notice The following observation data may not be complete
Jul 16 21:25     Clear            %              
Jul 16 21:20 NW 14   Clear   98 57     26%   97 29.72        
Jul 16 21:15 WNW 12   Clear   98 56     25%   97 29.72        
Jul 16 21:10 WNW 16   Clear   99 57     25%   98 29.72        
Jul 16 21:05 WNW 16   Clear   99 57     25%   98 29.72        
Jul 16 21:00 WNW 16   Clear   99 57     25%   98 29.71        
Jul 16 20:55 NW 14   Clear   99 57     25%   98 29.71        
Jul 16 20:50 WNW 12   Clear   99 57     25%   98 29.71        
Jul 16 20:45 WNW 15   Clear   99 58     26%   99 29.71        
Jul 16 20:40 WNW 12   Clear   99 58     26%   99 29.71        
Jul 16 20:35 WNW 12   Clear   100 59     26%   100 29.71        
Notice The following observation data may not be complete
Jul 16 20:25     Clear            %              
Jul 16 20:20 NW 12   Clear   100 59     26%   100 29.7        
Jul 16 20:15 NW 13   Clear   100 59     26%   100 29.7        
Jul 16 20:10 WNW 12   Clear   100 58     25%   100 29.7        
Jul 16 20:05 WNW 14   Clear   101 60     26%   102 29.71        
Jul 16 20:00 WNW 14   Clear   101 59     25%   101 29.7        
Jul 16 19:55 WNW 13   Clear   102 59     25%   103 29.7        
Jul 16 19:50 WNW 14   Clear   102 59     25%   103 29.7        
Jul 16 19:45 NW 10   Clear   102 59     25%   103 29.7        
Jul 16 19:40 WNW 14   Clear   102 59     25%   103 29.7        
Jul 16 19:35 WNW 16   Clear   102 59     25%   103 29.7        
Jul 16 19:30 WNW 10   Clear   103 59     24%   104 29.7        
Jul 16 19:25 NW 12   Clear   103 59     24%   104 29.7        
Jul 16 19:20 WNW 12   Clear   104 60     24%   105 29.7        
Jul 16 19:15 WNW 12   Clear   104 59     23%   105 29.7        
Jul 16 19:10 WNW 12   Clear   105 58     22%   106 29.7        
Jul 16 19:05 WNW 10   Clear   105 58     22%   106 29.7        
Jul 16 19:00 WNW 10   Clear   106 59     22%   107 29.69        
Jul 16 18:55 WNW 9   Clear   106 58     21%   106 29.69        
Jul 16 18:50 WNW 9   Clear   106 59     22%   107 29.69        
Jul 16 18:45 WNW 11   Clear   106 58     21%   106 29.69        
Jul 16 18:40 WNW 10   Clear   107 59     21%   108 29.69        
Jul 16 18:35 WNW 8   Clear   107 59     21%   108 29.68        
Jul 16 18:30 NW 12   Clear   107 59     21%   108 29.68        
Jul 16 18:25 WNW 9   Clear   107 59     21%   108 29.68        
Jul 16 18:20 WNW 10   Clear   108 60     21%   110 29.68        
Jul 16 18:15 NW 7   Clear   108 58     20%   109 29.68        
Jul 16 18:10 WNW 12   Clear   108 58     20%   109 29.68        
Jul 16 18:05 WNW 7   Clear   108 58     20%   109 29.68        
Jul 16 18:00 W 5   Clear   109 59     20%   110 29.68        
Jul 16 17:55 ENE 3   Clear   108 58     20%   109 29.68        
Jul 16 17:50 ESE 1   Clear   108 58     20%   109 29.69        
Jul 16 17:45 SE 1   Clear   108 57     19%   108 29.69        
Jul 16 17:40 SSE 1   Clear   108 58     20%   109 29.68        
Jul 16 17:35 S 3   Clear   108 58     20%   109 29.69        
Jul 16 17:30 ESE 4   Clear   108 57     19%   108 29.69        
Jul 16 17:25 SE 4   Clear   108 57     19%   108 29.69        
Jul 16 17:20 ESE 5   Clear   108 57     19%   108 29.69        
Jul 16 17:15 SE 7   Clear   108 57     19%   108 29.7        
Jul 16 17:10 ESE 6   Clear   108 58     20%   109 29.7        
Jul 16 17:05 SSE 5   Clear   109 58     19%   110 29.7        
Jul 16 17:00 SE 6   Clear   109 58     19%   110 29.7        
Jul 16 16:55 ESE 4   Clear   110 58     19%   111 29.7        
Jul 16 16:50 E 6   Clear   109 58     19%   110 29.7        
Jul 16 16:45 ESE 6   Clear   109 58     19%   110 29.7        
Jul 16 16:40 ESE 6   Clear   109 59     20%   110 29.71        
Jul 16 16:35 SE 5   Clear   108 57     19%   108 29.71        
Jul 16 16:30 ESE 7   Clear   108 58     20%   109 29.71        
Jul 16 16:25 SE 6   Clear   108 60     21%   110 29.71        
Jul 16 16:20 SSE 5   Clear   108 58     20%   109 29.71        
Jul 16 16:15 ESE 9   Clear   109 58     19%   110 29.71        
Jul 16 16:10 ESE 5   Clear   109 58     19%   110 29.71        
Jul 16 16:05 E 7   Clear   109 59     20%   110 29.71        
Jul 16 16:00 ESE 7   Clear   109 59     20%   110 29.72        
Jul 16 15:55 ESE 6   Clear   108 58     20%   109 29.72        
Jul 16 15:50 ESE 7   Clear   108 58     20%   109 29.72        
Jul 16 15:45 SE 6   Clear   108 60     21%   110 29.72        
Jul 16 15:40 ESE 7   Clear   107 59     21%   108 29.73        
Jul 16 15:35 SE 6   Clear   108 60     21%   110 29.73        
Jul 16 15:30 SSE 6   Clear   107 60     22%   109 29.73        
Jul 16 15:25 SSE 7   Clear   107 61     23%   109 29.73        
Jul 16 15:20 SE 7   Clear   107 61     23%   109 29.74        
Jul 16 15:15 SE 6   Clear   108 62     23%   111 29.74        
Jul 16 15:10 SE 7   Clear   108 62     23%   111 29.74        
Jul 16 15:05 SE 7   Clear   108 62     23%   111 29.75        
Jul 16 15:00 ESE 9   Clear   107 61     23%   109 29.75        
Jul 16 14:55 E 3   Clear   107 60     22%   109 29.75        
Jul 16 14:50 SSE 4   Clear   107 60     22%   109 29.75        
Jul 16 14:45 SE 6   Clear   108 62     23%   111 29.75        
Jul 16 14:40 SE 3   Clear   106 63     25%   109 29.76        
Jul 16 14:35 SSE 2   Clear   106 62     24%   109 29.76        
Jul 16 14:30 E 5   Clear   106 62     24%   109 29.76        
Jul 16 14:25 SE 5   Clear   107 61     23%   109 29.76        
Jul 16 14:20 E 3   Clear   107 61     23%   109 29.76        
Jul 16 14:15 ESE 6   Clear   107 62     24%   110 29.77        
Jul 16 14:10 SE 6   Clear   107 64     25%   111 29.77        
Jul 16 14:05 ENE 5   Clear   107 62     24%   110 29.77        
Jul 16 14:00 SE 2   Clear   106 63     25%   109 29.77        
Jul 16 13:55 SE 5   Clear   106 63     25%   109 29.78        
Jul 16 13:50 ESE 5   Clear   106 60     23%   108 29.78        
Jul 16 13:45 E 6   Clear   105 62     25%   108 29.78        
Jul 16 13:40 SSE 3   Clear   104 62     26%   107 29.78        
Jul 16 13:35 ESE 5   Clear   105 62     25%   108 29.78        
Jul 16 13:30 E 1   Clear   105 62     25%   108 29.79        
Jul 16 13:25 ENE 7   Clear   105 62     25%   108 29.79        
Jul 16 13:20 SSE 6   Clear   104 61     25%   106 29.79        
Jul 16 13:15 SSE 3   Clear   104 62     26%   107 29.79        
Jul 16 13:10 SE 6   Clear   104 62     26%   107 29.79        
Jul 16 13:05 SE 5   Clear   104 62     26%   107 29.79        
Jul 16 13:00 ESE 7   Clear   104 61     25%   106 29.79        
Jul 16 12:55 SSE 5   Clear   103 61     26%   105 29.8        
Jul 16 12:50 SSE 6   Clear   103 62     27%   106 29.8        
Jul 16 12:45 SSE 5   Clear   103 62     27%   106 29.8        
Jul 16 12:40 S 5   Clear   103 64     28%   106 29.8        
Jul 16 12:35 SSE 5   Clear   104 62     26%   107 29.8        
Jul 16 12:30 SE 4   Clear   102 62     27%   104 29.81        
Jul 16 12:25 ESE 6   Clear   104 61     25%   106 29.81        
Jul 16 12:20 ESE 6   Clear   103 61     26%   105 29.81        
Jul 16 12:15 SE 5   Clear   102 63     28%   104 29.81        
Jul 16 12:10 ESE 7   Clear   103 62     27%   106 29.81        
Jul 16 12:05 ESE 9   Clear   103 62     27%   106 29.81        
Jul 16 12:00 SSE 6   Clear   103 62     27%   106 29.81        
Jul 16 11:55 ESE 9   Clear   103 61     26%   105 29.81        
Jul 16 11:50 SE 3   Clear   102 59     25%   103 29.82        
Jul 16 11:45 SW 2   Clear   103 59     24%   104 29.82        
Jul 16 11:40 E 5   Clear   102 59     25%   103 29.82        
Jul 16 11:35 S 3   Clear   102 63     28%   104 29.82        
Jul 16 11:30 SSE 4   Clear   101 61     27%   102 29.82        
Jul 16 11:25 S 4   Clear   101 61     27%   102 29.82        
Jul 16 11:20 E 6   Clear   103 60     25%   104 29.82        
Jul 16 11:15 E 3   Clear   102 62     27%   104 29.82        
Jul 16 11:10 SE 2   Clear   102 62     27%   104 29.82        
Jul 16 11:05 ESE 5   Clear   101 61     27%   102 29.82        
Jul 16 11:00 SE 4   Clear   101 60     26%   102 29.82        
Jul 16 10:55 ESE 8   Clear   102 61     26%   103 29.82        
Jul 16 10:50 ESE 6   Clear   101 60     26%   102 29.82        
Jul 16 10:45 ESE 5   Clear   100 60     27%   101 29.82        
Jul 16 10:40 SE 5   Clear   101 61     27%   102 29.82        
Jul 16 10:35 WSW 2   Clear   101 59     25%   101 29.82        
Jul 16 10:30 W 2   Clear   101 60     26%   102 29.82        
Jul 16 10:25 WNW 2   Clear   100 59     26%   100 29.82        
Jul 16 10:20 WSW 2   Clear   100 59     26%   100 29.82        
Jul 16 10:15 WSW 3   Clear   100 60     27%   101 29.82        
Jul 16 10:10 W 2   Clear   100 58     25%   100 29.82        
Jul 16 10:05 WSW 1   Clear   100 59     26%   100 29.82        
Jul 16 10:00 SSW 4   Clear   99 58     26%   99 29.82        
Jul 16 09:55 SSW 3   Clear   100 60     27%   101 29.82        
Jul 16 09:50 W 2   Clear   99 57     25%   98 29.82        
Jul 16 09:45 WSW 3   Clear   100 58     25%   100 29.82        
Jul 16 09:40 SSW 2   Clear   99 59     27%   99 29.82        
Jul 16 09:35 WSW 5   Clear   99 58     26%   99 29.82        
Jul 16 09:30 WNW 5   Clear   99 58     26%   99 29.82        
Jul 16 09:25 W 2   Clear   99 57     25%   98 29.82        
Jul 16 09:20 NW 6   Clear   99 58     26%   99 29.82        
Jul 16 09:15 W 7   Clear   98 56     25%   97 29.82        
Jul 16 09:10 WNW 7   Clear   98 57     26%   97 29.82        
Jul 16 09:05 WNW 10   Clear   98 57     26%   97 29.82        
Jul 16 09:00 WNW 9   Clear   97 56     26%   96 29.82        
Jul 16 08:55 WNW 9   Clear   97 56     26%   96 29.82        
Jul 16 08:50 WNW 10   Clear   97 57     27%   96 29.82        
Jul 16 08:45 WNW 10   Clear   96 57     27%   95 29.82        
Jul 16 08:40 WNW 12   Clear   96 57     27%   95 29.82        
Jul 16 08:35 WNW 9   Clear   96 57     27%   95 29.82        
Jul 16 08:30 WNW 10   Clear   96 57     27%   95 29.82        
Jul 16 08:25 WNW 7   Clear   96 57     27%   95 29.82        
Jul 16 08:20 WNW 9   Clear   96 56     26%   94 29.82        
Jul 16 08:15 WNW 11   Clear   95 56     27%   93 29.82        
Jul 16 08:10 WNW 9   Clear   95 57     28%   94 29.82        
Jul 16 08:05 NW 6   Clear   95 57     28%   94 29.82        
Jul 16 08:00 WNW 8   Clear   94 56     28%   92 29.82        
Jul 16 07:55 WNW 9   Clear   94 56     28%   92 29.82        
Jul 16 07:50 WNW 11   Clear   93 56     29%   91 29.82        
Jul 16 07:45 WNW 10   Clear   93 56     29%   91 29.81        
Jul 16 07:40 WNW 11   Clear   93 56     29%   91 29.81        
Jul 16 07:35 WNW 9   Clear   93 56     29%   91 29.81        
Jul 16 07:30 WNW 12   Clear   93 56     29%   91 29.8        
Jul 16 07:25 WNW 10   Clear   92 56     30%   90 29.8        
Jul 16 07:20 WNW 10   Clear   92 55     29%   90 29.8        
Jul 16 07:15 WNW 9   Clear   92 56     30%   90 29.8        
Jul 16 07:10 WNW 8   Clear   92 56     30%   90 29.8        
Jul 16 07:05 WNW 7   Clear   91 55     30%   89 29.8        
Jul 16 07:00 WNW 10   Clear   91 56     31%   89 29.8        
Jul 16 06:55 WNW 6   Clear   91 56     31%   89 29.8        
Jul 16 06:50 WNW 7   Clear   90 55     31%   88 29.8        
Jul 16 06:45 WNW 9   Clear   90 56     32%   88 29.8        
Jul 16 06:40 WNW 9   Clear   90 56     32%   88 29.8        
Jul 16 06:30 WNW 8   Clear   89 56     33%   87 29.8        
Jul 16 06:25 WNW 9   Clear   89 56     33%   87 29.8        
Jul 16 06:20 W 9   Clear   90 57     33%   89 29.8        
Jul 16 06:15 WNW 7   Clear   90 56     32%   88 29.8        
Jul 16 06:10 WNW 7   Clear   90 55     31%   88 29.8        
Jul 16 06:05 WNW 9   Clear   90 56     32%   88 29.8        
Jul 16 05:55 WNW 7   Clear   90 56     32%   88 29.79        
May 15 12:10 WNW 3   Clear   86 46     25%   83 29.88        
May 15 12:05 WNW 6   Clear   86 45     24%   83 29.88        
Notice The following observation data may not be complete
May 15 11:55     Clear            %              
May 15 11:30 WNW 6   Clear   84 45     26%   82 29.89        
May 15 10:35 WNW 6   Clear   81 47     31%   80 29.89        
Notice The following observation data may not be complete
May 15 08:40     Clear            %              
May 15 08:20 WNW 17   Clear   72 50     46%   71 29.88        
May 15 08:15 WNW 12   Clear   72 50     46%   71 29.88        
Notice The following observation data may not be complete
May 15 08:10     Clear            %              
May 15 07:35 WNW 14   Clear   69 49     49%     29.86        
May 15 07:00 WNW 15   Clear   67 49     52%     29.86        
May 15 06:55     Clear   67 49     52%     29.86        
May 15 06:30 WNW 12   Clear   66 49     55%     29.85        
May 15 06:25     Clear   66 49     55%     29.85        
May 15 06:20     Clear   66 49     55%     29.84        
May 15 06:05     Clear   66 49     54%     29.83        
May 15 05:50 WNW 18   Clear   66 49     54%     29.82        
May 15 05:40 NW 18   Clear   66 49     54%     29.82        
May 15 05:30 WNW 17   Clear   67 50     54%     29.82        
May 15 05:05     Clear   67 49     53%     29.8        
May 15 05:00     Clear   67 49     53%     29.8        
May 15 04:50     Clear   67 49     53%     29.8        
May 15 04:10     Clear   68 50     52%     29.8        
May 15 04:00     Clear   68 50     52%     29.8        
May 15 03:25     Clear   67 50     54%     29.79        
May 15 03:20     Clear   67 50     54%     29.79        
May 15 03:10     Clear   67 50     54%     29.79        
May 15 03:00 WNW 19   Clear   68 50     53%     29.8        
May 15 02:35     Clear   68 50     53%     29.8        
May 15 02:25     Clear   68 51     54%     29.8        
May 15 02:20 WNW 18   Clear   68 51     54%     29.8        
May 15 02:00 WNW 15   Clear   68 50     53%     29.8        
May 15 01:45     Clear   68 50     53%     29.8        
May 15 01:25 WNW 20   Clear and Windy   68 50     52%     29.81        
May 15 00:55 WNW 17   Clear   69 50     51%     29.81        
May 15 00:25 WNW 19   Clear   69 50     51%     29.8        
Notice The following observation data may not be complete
May 15 00:10     Clear            %              
May 14 23:30 WNW 17   Clear   71 50     48%   70 29.8        
May 14 21:40 WNW 14   Clear   74 51     44%   73 29.8        
May 14 20:55 WNW 17   Clear   76 51     41%   75 29.78        
May 14 20:40 WNW 14   Clear   76 51     41%   75 29.77        
May 14 20:15 NW 16   Clear   77 51     40%   76 29.76        
May 14 18:50 WNW 16   Clear   82 50     33%   81 29.74        
May 14 18:00 WNW 12   Clear   85 50     30%   83 29.73        
May 14 17:50 WNW 16   Clear   86 49     28%   84 29.73        
May 14 17:20 WNW 9   Clear   87 49     27%   84 29.74        
May 14 17:15 WNW 11   Clear   87 48     26%   84 29.74        
Notice The following observation data may not be complete
May 14 17:00     Clear            %              
May 14 16:45 WNW 11   Clear   88 47     24%   85 29.74        
Notice The following observation data may not be complete
May 14 15:20     Clear            %              
May 14 14:05 SE 4   Clear   87 41     20%   84 29.81        
May 14 13:40 ESE 1   Clear   85 42     22%   82 29.82        
May 14 13:20 SW 5   Clear   85 41     21%   82 29.82        
May 14 12:50 ESE 3   Clear   85 42     22%   82 29.83        
May 14 11:50 SSW 2   Clear   83 44     25%   81 29.84        
Notice The following observation data may not be complete
May 14 11:25     Clear            %              
May 14 11:15 SW 5   Clear   81 43     26%   80 29.85        
May 14 11:10 WSW 5   Clear   82 44     26%   80 29.85        
May 14 10:25 WNW 6   Clear   80 45     29%   79 29.85        
May 14 10:20 W 3   Clear   79 45     30%   78 29.85        
May 14 10:00 W 5   Clear   78 47     33%   77 29.85        
May 14 09:50 W 4   Clear   77 46     34%   76 29.85        
May 14 09:45 W 5   Clear   77 46     34%   76 29.85        
May 14 09:00 WNW 10   Clear   74 48     40%   73 29.85        
May 14 08:40 WNW 12   Clear   72 49     44%   71 29.85        
Notice The following observation data may not be complete
May 14 08:25     Clear            %              
May 14 08:15 WNW 15   Clear   70 49     47%     29.85        
May 14 07:20 WNW 17   Clear   66 48     53%     29.83        
May 14 07:05 WNW 17   Clear   65 48     54%     29.83        
May 14 06:25 WNW 14   Clear   64 49     58%     29.82        
May 14 06:00 WNW 15   Clear   64 48     56%     29.81        
May 14 05:50 NW 13   Clear   64 48     57%     29.81        
May 14 05:40     Clear   64 48     57%     29.8        
May 14 05:10     Clear   64 49     58%     29.8        
Notice The following observation data may not be complete
May 14 04:25     Clear            %              
May 14 03:55     Clear   64 49     59%     29.8        
May 14 03:45 WNW 16   Clear   64 49     59%     29.8        
May 14 03:15 WNW 14   Clear   64 49     58%     29.8        
May 14 03:10 WNW 15   Clear   64 49     58%     29.8        
May 14 02:40 NW 19   Clear   64 49     59%     29.8        
May 14 02:20     Clear   64 49     58%     29.8        
May 14 02:10     Clear   64 49     58%     29.8        
May 14 00:05 NW 16   Clear   66 49     55%     29.82        
Notice The following observation data may not be complete
May 13 23:25     Clear            %              
May 13 22:55 WNW 15   Clear   69 49     49%     29.82        
May 13 22:25 NW 10   Clear   70 48     45%     29.82        
May 13 22:20 NW 10   Clear   70 47     44%     29.82        
May 13 21:10 NW 10   Clear   73 47     39%   72 29.8        
May 13 20:50 WNW 12   Clear   73 47     39%   72 29.8        
May 13 19:45 WNW 12   Clear   74 45     36%   73 29.79        
Notice The following observation data may not be complete
May 13 17:20     Clear            %              
Notice The following observation data may not be complete
May 13 17:15     Clear            %              
May 13 17:05 WNW 13   Clear   81 46     29%   80 29.79        
May 13 16:55 WNW 12   Clear   81 47     30%   80 29.79        
Notice The following observation data may not be complete
May 13 16:05     Clear            %              
Notice The following observation data may not be complete
May 13 14:55     Clear            %              
Notice The following observation data may not be complete
May 13 12:55     Clear            %              
May 13 12:30 WNW 11   Clear   78 47     34%   77 29.88        
May 13 12:25 WNW 12   Clear   78 47     34%   77 29.88        
May 13 11:55 WNW 13   Clear   76 46     35%   75 29.89        
May 13 11:20 WNW 16   Clear   75 47     37%   74 29.9        
May 13 09:55 WNW 19   Clear   72 47     41%   71 29.9        
May 13 09:45 WNW 21   Clear and Windy   71 47     43%   70 29.89        
May 13 07:45 WNW 16   Clear   66 47     51%     29.87        
May 13 07:15     Clear   64 47     54%     29.85        
May 13 07:05 WNW 18   Clear   64 48     55%     29.85        
May 13 05:20 WNW 19   Clear   63 48     57%     29.82        
May 13 04:50     Clear   63 47     56%     29.8        
May 13 04:30     Clear   63 47     56%     29.81        
May 13 04:20 WNW 20   Clear and Windy   63 47     56%     29.81        
May 13 04:15     Clear   63 47     56%     29.8        
May 13 03:00 NW 24   Clear and Windy   64 47     54%     29.79        
May 13 02:00     Clear   64 47     53%     29.79        
May 13 01:40 NW 23   Clear and Windy   64 47     53%     29.8        
May 13 01:15 WNW 22   Clear and Windy   65 47     53%     29.8        
May 13 00:40     Clear   65 46     51%     29.81        
May 13 00:35     Clear   65 46     51%     29.81        
May 12 23:40 NW 22   Clear and Windy   66 46     49%     29.8        
May 12 23:35 WNW 18   Clear   66 46     49%     29.8        
May 12 22:35 NW 16   Clear   67 47     49%     29.8        
May 12 22:15 NW 20   Clear and Windy   67 47     49%     29.79        
May 12 21:55 WNW 15   Clear   67 47     49%     29.8        
May 12 21:45 NW 24   Clear and Windy   67 47     48%     29.79        
May 12 21:35 NW 21   Clear and Windy   68 48     48%     29.79        
May 12 21:20 WNW 22   Clear and Windy   68 47     47%     29.78        
Notice The following observation data may not be complete
May 12 21:00     Clear            %              
May 12 20:35 WNW 19   Clear   69 47     45%     29.76        
May 12 20:20 WNW 19   Clear   69 47     45%     29.76        
May 12 20:05 WNW 19   Clear   69 46     44%     29.76        
May 12 18:50 WNW 18   Clear   73 47     39%   72 29.73        
Notice The following observation data may not be complete
May 12 18:20     Clear            %              
May 12 18:05     Clear   75 47     37%   74 29.74        
May 12 17:30 NW 18   Clear   77 46     34%   76 29.74        
May 12 17:20 NW 16   Clear   77 46     34%   76 29.74        
May 12 15:25     Clear   80 46     30%   79 29.76        
May 12 15:20 WNW 20   Clear and Windy   80 46     30%   79 29.76        
May 12 15:00 NW 15   Clear   80 47     31%   79 29.77        
May 12 14:15     Clear   80 47     31%   79 29.78        
May 12 13:10 WNW 14   Clear   78 46     32%   77 29.79        
May 12 12:35     Clear   77 46     33%   76 29.8        
May 12 12:30 WNW 13   Clear   77 47     35%   76 29.8        
Notice The following observation data may not be complete
May 12 12:25     Clear            %              
May 12 12:10 WNW 13   Clear   76 46     34%   75 29.8        
May 12 11:45 WNW 14   Clear   75 46     36%   74 29.81        
May 12 11:15 NW 16   Clear   74 46     37%   73 29.82        
May 12 09:00 WNW 18   Clear   68 45     44%     29.81        
Notice The following observation data may not be complete
May 12 08:50     Clear            %              
May 12 08:45 WNW 16   Clear   67 46     46%     29.81        
May 12 08:35     Clear   67 46     46%     29.8        
May 12 08:30 WNW 16   Clear   67 46     47%     29.8        
May 12 07:15 NW 17   Clear   62 45     54%     29.79        
May 12 07:05 WNW 18   Clear   62 46     55%     29.78        
May 12 06:45 WNW 17   Clear   61 45     56%     29.77        
Notice The following observation data may not be complete
May 12 05:55     Clear            %              
May 12 04:10 WNW 22   Clear and Windy   62 45     54%     29.7        
May 12 03:40 WNW 24   Clear and Windy   62 45     54%     29.7        
May 12 03:35     Clear   62 46     55%     29.7        
Notice The following observation data may not be complete
May 12 03:10     Clear            %              
May 12 02:50     Clear   63 46     53%     29.68        
May 12 02:35 WNW 22   Clear and Windy   63 46     54%     29.67        
May 12 02:20     Clear   63 46     54%     29.66        
May 12 02:00 WNW 22   Clear and Windy   63 46     53%     29.66        
May 12 01:50     Clear   63 46     53%     29.65        
May 12 01:40     Clear   64 47     53%     29.65        
May 12 01:15     Clear   64 46     52%     29.65        
Notice The following observation data may not be complete
May 12 01:10     Clear            %              
May 12 01:00     Clear   64 47     53%     29.65        
May 12 00:40     Clear   64 47     53%     29.64        
May 12 00:05     Clear   64 47     54%     29.64        
May 11 22:45     Clear   65 47     52%     29.65        
May 11 22:40     Clear   65 47     52%     29.65        
May 11 22:05     Clear   65 47     52%     29.65        
May 11 22:00 NW 18   Clear   65 47     52%     29.64        
May 11 21:10 NW 12   Clear   66 47     51%     29.64        
May 11 19:40 NW 20   Clear and Windy   68 48     49%     29.59        
May 11 19:20 WNW 16   Clear   70 48     46%     29.59        
May 11 18:45 NW 17   Clear   73 49     42%   72 29.57        
May 11 18:40 NW 19   Clear   72 48     43%   71 29.57        
May 11 18:15 NW 19   Clear   75 48     39%   74 29.57        
Notice The following observation data may not be complete
May 11 17:05 NW 17   Clear     49      %     29.56        
Notice The following observation data may not be complete
May 11 17:00 WNW 18   Clear     48      %     29.56        
May 11 16:15 WNW 17   Clear   80 49     34%   79 29.56        
Notice The following observation data may not be complete
May 11 16:00     Clear            %              
Notice The following observation data may not be complete
May 11 15:55     Clear            %              
May 11 15:50 WNW 20   Clear and Windy   80 50     35%   79 29.57        
May 11 15:40 NW 22   Clear and Windy   81 50     34%   80 29.57        
May 11 15:15 NW 21   Clear and Windy   82 49     32%   81 29.58        
May 11 15:00 WNW 18   Clear   82 49     32%   81 29.57        
May 11 14:50 WNW 20   Clear and Windy   82 49     32%   81 29.58        
May 11 14:20 WNW 21   Clear and Windy   81 49     33%   80 29.6        
May 11 13:30 WNW 18   Clear   82 51     34%   81 29.61        
Notice The following observation data may not be complete
May 11 13:25     Clear            %              
May 11 13:15 WNW 16   Clear   82 50     33%   81 29.62        
May 11 12:45 WNW 15   Clear   81 49     33%   80 29.63        
May 11 11:25 NW 9   Clear   80 50     35%   79 29.66        
May 11 11:15 WNW 9   Clear   80 50     35%   79 29.66        
May 11 09:55 NW 10   Clear   78 51     39%   77 29.66        
May 11 09:30 WNW 11   Clear   77 51     40%   76 29.66        
May 11 07:05 NW 7   Clear   69 51     52%     29.65        
May 11 06:45 WNW 12   Clear   68 50     53%     29.64        
Notice The following observation data may not be complete
May 11 06:20     Clear            %              
May 11 05:00     Clear   70 50     50%     29.62        
Jun 12 06:10 NNW 12   Clear   64 47     53%     29.86        
Jun 12 06:00 NNW 12   Clear   64 47     53%     29.85        
Jun 12 05:00     Clear   65 45     49%     29.83        
Jun 12 04:00     Clear   66 45     47%     29.82        
Jun 12 03:45     Clear   66 44     45%     29.82        
Jun 12 03:40 NW 17   Clear   66 44     45%     29.81        
Jun 12 03:30 NW 16   Clear   66 45     46%     29.82        
Notice The following observation data may not be complete
Jun 12 03:25     Clear            %              
Jun 12 03:05 WNW 15   Clear   66 44     45%     29.82        
Jun 12 02:45 NW 16   Clear   66 44     45%     29.81        
Jun 12 02:15 NW 16   Clear   67 44     44%     29.8        
Notice The following observation data may not be complete
Jun 12 00:55     Clear            %              
Jun 12 00:30     Clear   67 47     49%     29.8        
Jun 12 00:25 NW 18   Clear   67 47     49%     29.8        
Jun 11 23:45 NW 20   Clear and Windy   67 47     48%     29.8        
Jun 11 23:25 WNW 20   Clear and Windy   68 47     47%     29.8        
Jun 11 21:50 NW 20   Clear and Windy   68 47     47%     29.79        
Jun 11 21:40 NW 20   Clear and Windy   69 47     46%     29.78        
Jun 11 21:30 NW 17   Clear   69 47     45%     29.77        
Jun 11 21:25     Clear   70 47     44%     29.77        
Jun 11 21:20 NW 15   Clear   70 47     44%     29.76        
Jun 11 21:05 NW 16   Clear   70 47     44%     29.75        
Jun 11 21:00 NW 17   Clear   71 48     44%   70 29.75        
Jun 11 20:50 NW 17   Clear   71 47     42%   70 29.74        
Jun 11 18:55 NW 16   Clear   79 44     29%   78 29.69        
Jun 11 18:40 NW 18   Clear   80 45     29%   79 29.69        
Jun 11 16:45 NW 11   Clear   85 44     24%   82 29.68        
Jun 11 15:55 NW 18   Clear   85 46     26%   82 29.69        
Jun 11 15:50 NW 17   Clear   85 45     25%   82 29.69        
Jun 11 15:40 NW 16   Clear   85 46     26%   82 29.69        
Jun 11 15:35     Clear   85 45     25%   82 29.69        
Jun 11 15:30 WNW 21   Clear and Windy   85 45     25%   82 29.69        
Jun 11 15:25     Clear   85 45     25%   82 29.69        
Jun 11 15:20 WNW 12   Clear   86 45     24%   83 29.69        
Jun 11 15:10 WNW 19   Clear   85 46     26%   82 29.69        
Jun 11 15:05 NW 17   Clear   85 46     26%   82 29.69        
Jun 11 15:00 NW 18   Clear   85 46     26%   82 29.69        
Jun 11 14:35 NW 22   Clear and Windy   85 46     26%   82 29.7        
Jun 11 14:30 NW 17   Clear   85 45     25%   82 29.7        
Jun 11 13:30 WNW 17   Clear   83 47     29%   81 29.71        
Jun 11 13:15 NW 20   Clear and Windy   82 47     30%   80 29.71        
Jun 11 12:35 NW 17   Clear   81 48     32%   80 29.72        
Jun 11 12:30 WNW 16   Clear   81 49     33%   80 29.72        
Jun 11 11:15 WNW 10   Clear   80 49     34%   79 29.74        
Jun 11 10:10 WNW 13   Clear   77 48     36%   76 29.72        
Jun 11 09:15 NW 15   Clear   75 48     39%   74 29.72        
Jun 11 09:00 WNW 13   Clear   74 48     40%   73 29.72        
Jun 11 08:35 WNW 13   Clear   73 49     43%   72 29.72        
Jun 11 08:15 NW 10   Clear   71 48     44%   70 29.71        
Jun 11 07:55 NW 14   Clear   70 48     45%     29.71        
Jun 11 07:35 NW 17   Clear   69 48     47%     29.7        
Jun 11 07:05 WNW 16   Clear   68 48     48%     29.69        
Jun 11 06:15 WNW 14   Clear   66 45     47%     29.67        
Jun 11 05:35     Clear   66 47     50%     29.66        
Jun 11 05:05 WNW 16   Clear   66 46     49%     29.65        
Jun 11 04:45     Clear   66 47     51%     29.65        
Jun 11 04:25 WNW 18   Clear   66 47     51%     29.64        
Jun 11 03:35     Clear   66 49     54%     29.63        
Jun 11 03:20 NW 19   Clear   66 49     54%     29.63        
Jun 11 03:00 NW 19   Clear   66 48     53%     29.62        
Jun 11 01:35     Clear   67 50     54%     29.63        
Jun 11 01:00 WNW 21   Clear and Windy   69 50     50%     29.63        
Jun 11 00:45     Clear   70 49     48%     29.63        
Jun 11 00:30 WNW 17   Clear   71 49     45%   70 29.63        
Jun 11 00:15 WNW 25   Clear and Windy   72 48     43%   71 29.63        
Jun 11 00:10 NW 18   Clear   72 48     43%   71 29.63        
Jun 11 00:05 NW 17   Clear   72 49     44%   71 29.63        
Jun 10 22:10 NW 20   Clear and Windy   74 49     42%   73 29.62        
Jun 10 21:35     Clear   76 49     39%   75 29.61        
Jun 10 21:00 NW 18   Clear   78 50     37%   77 29.6        
Jun 10 20:30 WNW 20   Clear and Windy   78 50     38%   77 29.6        
Jun 10 20:20 NW 16   Clear   79 50     37%   78 29.6        
Jun 10 20:05 NW 15   Clear   79 51     38%   78 29.6        
Jun 10 19:25 NW 16   Clear   81 52     36%   80 29.6        
Jun 10 18:55 NNW 20   Clear and Windy   83 52     34%   82 29.6        
Jun 10 17:55 NW 12   Clear   89 47     24%   86 29.59        
Jun 10 17:35 WNW 16   Clear   90 46     22%   87 29.6        
Jun 10 16:45 NW 14   Clear   92 41     17%   88 29.59        
Jun 10 16:25 NNW 15   Clear   93 38     15%   89 29.6        
Jun 10 16:10 NW 14   Clear   93 38     15%   89 29.6        
Jun 10 12:30 WNW 10   Clear   88 46     23%   85 29.69        
Notice The following observation data may not be complete
Jun 10 11:25     Clear            %              
Jun 10 11:10 NW 9   Clear   85 47     27%   83 29.7        
Jun 10 10:35 NW 10   Clear   84 48     29%   82 29.7        
Jun 10 10:30 WNW 9   Clear   84 48     29%   82 29.7        
Jun 10 10:00 WNW 8   Clear   83 50     32%   81 29.7        
Jun 10 08:50 NW 10   Clear   80 49     34%   79 29.7        
Jun 10 08:20 WNW 10   Clear   79 50     36%   78 29.7        
Jun 10 07:35     Clear   77 49     37%   76 29.69        
Jun 10 06:40     Clear   75 46     36%   74 29.67        
Jun 10 06:10     Clear   75 47     37%   74 29.67        
Jun 10 04:55 NW 13   Clear   75 47     37%   74 29.66        
Jun 10 04:20 NW 12   Clear   75 49     40%   74 29.66        
Jun 10 04:15     Clear   75 50     42%   74 29.66        
Jun 10 01:45     Clear   74 54     49%   73 29.67        
Jun 10 01:15     Clear   75 53     46%   74 29.66        
Jun 09 21:00 NW 17   Clear   82 52     36%   81 29.65        
Notice The following observation data may not be complete
Jun 09 20:10     Clear            %              
Jun 09 18:50 WNW 16   Clear   92 51     25%   89 29.62        
Jun 09 18:30     Clear   93 51     24%   90 29.62        
Jun 09 18:20 NW 14   Clear   94 52     24%   91 29.62        
Jun 09 18:05 NW 10   Clear   95 51     23%   92 29.62        
Jun 09 17:10 WNW 14   Clear   96 52     23%   93 29.64        
Jun 09 16:30 NW 17   Clear   97 52     22%   94 29.65        
Jun 09 16:25 NW 9   Clear   97 51     21%   94 29.65        
Jun 09 15:50 NW 15   Clear   97 52     22%   94 29.66        
Jun 09 15:35 NW 17   Clear   97 52     22%   94 29.67        
Jun 09 14:35 NW 16   Clear   98 49     19%   95 29.69        
Jun 09 14:25 NW 8   Clear   98 49     19%   95 29.69        
Jun 09 14:20 NW 16   Clear   97 48     19%   94 29.69        
Jun 09 13:25 NNE 3   Clear   96 44     17%   92 29.7        
Jun 09 13:00 NNW 9   Clear   97 45     17%   93 29.72        
Jun 09 12:25 WNW 6   Clear   96 44     17%   92 29.73        
Jun 09 12:15 WNW 5   Clear   95 43     17%   91 29.73        
Jun 09 10:15 WSW 3   Clear   90 41     18%   86 29.75        
Notice The following observation data may not be complete
Jun 09 09:55     Clear            %              
Jun 09 09:00 W 4   Clear   86 47     26%   83 29.77        
Jun 09 08:15 NW 13   Clear   82 47     30%   80 29.76        
Jun 09 06:35 WNW 14   Clear   77 47     35%   76 29.75        
Jun 09 03:30     Clear   76 49     39%   75 29.73        
Jun 09 03:10 NW 16   Clear   77 48     36%   76 29.73        
Notice The following observation data may not be complete
Jun 09 02:55     Clear            %              
Jun 09 02:25 NW 16   Clear   78 47     34%   77 29.73        
Jun 09 02:20     Clear   78 47     34%   77 29.73        
Jun 09 02:15     Clear   78 47     33%   77 29.73        
Jun 09 01:45 NW 18   Clear   78 45     31%   77 29.73        
Jun 09 01:25 WNW 15   Clear   79 45     30%   78 29.73        
Jun 09 01:15 NW 17   Clear   79 44     29%   78 29.73        
Jun 09 01:10     Clear   79 45     30%   78 29.73        
Jun 09 01:00 NW 17   Clear   79 46     31%   78 29.73        
Jun 09 00:45     Clear   79 46     31%   78 29.73        
Jun 09 00:25     Clear   80        %     29.74        
Jun 09 00:15 NW 17   Clear   80 45     29%   79 29.73        
Jun 08 23:45 NW 17   Clear   80 45     29%   79 29.74        
Jun 08 23:40     Clear   80 46     30%   79 29.74        
Jun 08 23:15 NW 18   Clear   81 47     30%   80 29.74